Regional Weather Roundup
Issued by NWS Sioux Falls, SD

Home | Current Version | Previous Version | Text Only | Print | Product List | Glossary Off
Versions: 1 2 3 4 5 6 7 8 9 10 11 12 13 14 15 16 17 18 19 20 21 22 23 24 25 26 27 28 29 30 31 32 33 34 35 36 37 38 39 40 41 42 43 44 45 46 47 48 49 50

000
ASUS43 KFSD 170610
RWRFSD

WEATHER ROUNDUP FOR SE SOUTH DAKOTA/SW MINNESOTA/NW IOWA
NATIONAL WEATHER SERVICE SIOUX FALLS SD
1200 AM CST WED JAN 17 2018

NOTE: "FAIR" INDICATES FEW OR NO CLOUDS BELOW 12,000 FEET WITH NO
SIGNIFICANT WEATHER AND OR OBSTRUCTIONS TO VISIBILITY.


SDZ038>040-050-052>070-170700-
SOUTHEAST SOUTH DAKOTA

CITY           SKY/WX    TMP DP  RH WIND       PRES   REMARKS
BROOKINGS      CLOUDY    -1  -5  82 S9        30.43F WCI -16
CHAMBERLAIN    CLEAR     10   2  71 SE6       30.36S WCI   0
6HR MIN TEMP:   6; 6HR MAX TEMP:  12;

HURON          CLEAR      3  -2  79 S10       30.41F WCI -12
6HR MIN TEMP:   1; 6HR MAX TEMP:   5;

MADISON        FAIR       1   0  92 S12       30.42F WCI -15
MITCHELL       CLEAR      4  -2  76 S12       30.44F WCI -12
6HR MIN TEMP:   3; 6HR MAX TEMP:   5;

SIOUX FALLS    CLOUDY     5  -1  76 S10       30.47F WCI -10
6HR MIN TEMP:   0; 6HR MAX TEMP:   5;

WINNER         FAIR      16   3  56 SW20G28   30.31F WCI  -1
YANKTON        CLOUDY     2  -3  80 SE7       30.51F WCI -11
$$

MNZ071-072-080-081-089-090-097-098-170700-
SOUTHWEST MINNESOTA

CITY           SKY/WX    TMP DP  RH WIND       PRES   REMARKS
FAIRMONT       CLOUDY     0  -5  79 SW9       30.53F WCI -15
JACKSON        CLOUDY     0  -4  85 SW12      30.50S WCI -18
LUVERNE        CLOUDY     0  -6  78 S3        30.51S
MARSHALL       CLOUDY     5  -2  72 VRB5      30.45F WCI  -4
6HR MIN TEMP:  -1; 6HR MAX TEMP:   5;

MONTEVIDEO     CLOUDY     1  -4  78 SW7       30.45F WCI -11
PIPESTONE      CLOUDY     0  -6  78 SW9       30.44F WCI -16
REDWOOD FALLS  CLOUDY    -1  -5  82 S12       30.49F WCI -18
WINDOM         CLOUDY     0 -13  55 SW10      30.49F WCI -17
WORTHINGTON    CLOUDY     1  -4  79 SW13      30.48F WCI -17
$$

IAZ001>003-012>014-020>022-031-032-NEZ013-014-SDZ071-170700-
NORTHWEST IOWA

CITY           SKY/WX    TMP DP  RH WIND       PRES   REMARKS
CHEROKEE       CLOUDY    -3  -6  89 CALM      30.57F
DENISON        CLOUDY    -4  -6  92 CALM      30.61F
ESTHERVILLE    CLEAR     -1  -4  87 SW6       30.51F WCI -13
LE MARS        CLOUDY    -2  -6  84 S3        30.56F
ORANGE CITY    CLOUDY     0  -2  92 S6        30.51F WCI -12
SHELDON        CLOUDY     1  -2  85 S9        30.50F WCI -14
SIOUX CITY     CLOUDY    -2  -6  83 E7        30.59F WCI -15
6HR MIN TEMP:  -4; 6HR MAX TEMP:   5;

SPENCER        CLOUDY    -2  -7  79 SW7       30.53F WCI -15
6HR MIN TEMP:  -6; 6HR MAX TEMP:  -1;

STORM LAKE     CLEAR      0  -4  85 W9        30.53F WCI -16
$$

ABBREVIATIONS USED IN REMARKS
   TC - TEMPERATURE IN CELSIUS
  WCI - WIND CHILL INDEX
   HX - HEAT INDEX
  VSB - VISIBILITY





USA.gov is the U.S. government's official web portal to all federal, state and local government web resources and services.